UAL101 CYHZ-KBOS

Flight info

Callsign UAL101
Flight time N/A
Altitude 38000
Route SENVI VIGMA ALLEX AJJAY OOSHN5
Aircraft B38M/M-ICAO/S

Departure

Time 2026-04-28 00:46
Airport Halifax / Stanfield International Airport (CYHZ)

Arrival

Time N/A
Airport Boston Logan International Airport (KBOS)
Time Latitude Longitude Altitude Speed Heading
2026-04-28 00:18 44.88719 -63.51407 458 ft 0 kts 292°
2026-04-28 00:31 44.88720 -63.51406 458 ft 0 kts 302°
2026-04-28 00:31 44.88714 -63.51393 458 ft 3 kts 302°
2026-04-28 00:32 44.88704 -63.51371 456 ft 3 kts 302°
2026-04-28 00:32 44.88694 -63.51350 457 ft 3 kts 302°
2026-04-28 00:32 44.88684 -63.51328 457 ft 3 kts 302°
2026-04-28 00:32 44.88674 -63.51306 458 ft 3 kts 302°
2026-04-28 00:33 44.88665 -63.51285 455 ft 3 kts 302°
2026-04-28 00:33 44.88653 -63.51265 454 ft 3 kts 345°
2026-04-28 00:33 44.88651 -63.51263 457 ft 0 kts
2026-04-28 00:36 44.88653 -63.51263 457 ft 2 kts
2026-04-28 00:36 44.88682 -63.51263 456 ft 6 kts 355°
2026-04-28 00:37 44.88739 -63.51276 458 ft 10 kts 348°
2026-04-28 00:37 44.88817 -63.51295 458 ft 13 kts 351°
2026-04-28 00:37 44.88893 -63.51312 458 ft 9 kts 350°
2026-04-28 00:37 44.88955 -63.51329 455 ft 7 kts 355°
2026-04-28 00:38 44.88975 -63.51318 458 ft 3 kts 30°
2026-04-28 00:38 44.89000 -63.51296 458 ft 5 kts 32°
2026-04-28 00:38 44.89032 -63.51265 458 ft 0 kts 34°
2026-04-28 00:38 44.89037 -63.51261 456 ft 0 kts 33°
2026-04-28 00:41 44.89037 -63.51260 456 ft 0 kts 33°
2026-04-28 00:42 44.89046 -63.51251 458 ft 3 kts 38°
2026-04-28 00:42 44.89070 -63.51227 456 ft 6 kts 34°
2026-04-28 00:42 44.89113 -63.51232 456 ft 8 kts 327°
2026-04-28 00:42 44.89151 -63.51296 455 ft 9 kts 305°
2026-04-28 00:43 44.89189 -63.51372 458 ft 9 kts 305°
2026-04-28 00:43 44.89227 -63.51449 459 ft 10 kts 305°
2026-04-28 00:43 44.89264 -63.51536 459 ft 11 kts 292°
2026-04-28 00:43 44.89281 -63.51645 459 ft 11 kts 284°
2026-04-28 00:44 44.89304 -63.51688 460 ft 1 kts 352°
2026-04-28 00:44 44.89316 -63.51686 460 ft 2 kts 10°
2026-04-28 00:44 44.89332 -63.51670 460 ft 4 kts 49°
2026-04-28 00:44 44.89334 -63.51640 459 ft 2 kts 114°
2026-04-28 00:45 44.89326 -63.51628 459 ft 3 kts 129°
2026-04-28 00:45 44.89310 -63.51606 459 ft 6 kts 135°
2026-04-28 00:45 44.89271 -63.51538 459 ft 10 kts 125°
2026-04-28 00:45 44.89190 -63.51376 458 ft 40 kts 126°
2026-04-28 00:46 44.88909 -63.50822 456 ft 104 kts 126°
2026-04-28 00:46 44.88390 -63.49789 674 ft 140 kts 126°
2026-04-28 00:46 44.87843 -63.48607 1140 ft 149 kts 123°
2026-04-28 00:46 44.87292 -63.47346 1635 ft 151 kts 120°
2026-04-28 00:47 44.86708 -63.46145 2162 ft 153 kts 127°
2026-04-28 00:47 44.86026 -63.44821 2251 ft 179 kts 126°
2026-04-28 00:47 44.85047 -63.43654 2340 ft 198 kts 160°
2026-04-28 00:47 44.83638 -63.43825 2420 ft 219 kts 203°
2026-04-28 00:48 44.82584 -63.45418 2719 ft 232 kts 240°
2026-04-28 00:48 44.81977 -63.47579 3013 ft 242 kts 250°
2026-04-28 00:48 44.81425 -63.49873 3248 ft 251 kts 249°
2026-04-28 00:48 44.80776 -63.52193 3514 ft 257 kts 246°
2026-04-28 00:49 44.80070 -63.54526 3965 ft 262 kts 246°
2026-04-28 00:49 44.79358 -63.56924 4938 ft 269 kts 247°
2026-04-28 00:49 44.79166 -63.57590 5097 ft 275 kts 247°
2026-04-28 00:49 44.78645 -63.59476 4669 ft 319 kts 246°
2026-04-28 00:50 44.77767 -63.62336 5881 ft 311 kts 246°
2026-04-28 00:50 44.76958 -63.65073 7444 ft 296 kts 249°
2026-04-28 00:50 44.76201 -63.67726 8728 ft 290 kts 249°
2026-04-28 00:50 44.75437 -63.70353 9680 ft 292 kts 248°
2026-04-28 00:51 44.74661 -63.72974 10001 ft 296 kts 249°
2026-04-28 00:51 44.73875 -63.75630 9992 ft 291 kts 249°
2026-04-28 00:51 44.73085 -63.78320 10102 ft 308 kts 249°
2026-04-28 00:51 44.72241 -63.81193 10711 ft 324 kts 249°
2026-04-28 00:52 44.71364 -63.84155 11528 ft 331 kts 249°
2026-04-28 00:52 44.70473 -63.87163 12382 ft 336 kts 248°
2026-04-28 00:52 44.69569 -63.90218 13270 ft 340 kts 248°
2026-04-28 00:52 44.68656 -63.93301 14171 ft 343 kts 249°
2026-04-28 00:53 44.67732 -63.96414 14973 ft 346 kts 249°
2026-04-28 00:53 44.66802 -63.99544 15771 ft 349 kts 248°
2026-04-28 00:53 44.65859 -64.02696 16565 ft 351 kts 247°
2026-04-28 00:53 44.64908 -64.05824 17328 ft 354 kts 247°
2026-04-28 00:54 44.63936 -64.09016 18104 ft 357 kts 246°
2026-04-28 00:54 44.62958 -64.12245 18845 ft 360 kts 246°
2026-04-28 00:54 44.61973 -64.15495 19487 ft 363 kts 246°
2026-04-28 00:54 44.60978 -64.18768 20146 ft 366 kts 246°
2026-04-28 00:55 44.59974 -64.22063 20786 ft 369 kts 246°
2026-04-28 00:55 44.58959 -64.25390 21417 ft 372 kts 246°
2026-04-28 00:55 44.57940 -64.28732 22040 ft 374 kts 246°
2026-04-28 00:55 44.56908 -64.32107 22645 ft 377 kts 246°
2026-04-28 00:56 44.55869 -64.35502 23228 ft 381 kts 246°
2026-04-28 00:56 44.54819 -64.38927 23806 ft 384 kts 246°
2026-04-28 00:56 44.53759 -64.42382 24312 ft 387 kts 246°
2026-04-28 00:56 44.52692 -64.45855 24798 ft 389 kts 246°
2026-04-28 00:57 44.51615 -64.49353 25276 ft 392 kts 246°
2026-04-28 00:57 44.50545 -64.52826 25747 ft 394 kts 246°
2026-04-28 00:57 44.49443 -64.56399 26223 ft 396 kts 246°
2026-04-28 00:57 44.48359 -64.59908 26682 ft 398 kts 246°
2026-04-28 00:58 44.47256 -64.63470 27144 ft 400 kts 246°
2026-04-28 00:58 44.46143 -64.67064 27581 ft 402 kts 246°
2026-04-28 00:58 44.45023 -64.70674 28018 ft 405 kts 246°
2026-04-28 00:58 44.43898 -64.74296 28451 ft 407 kts 245°
2026-04-28 00:59 44.42765 -64.77935 28877 ft 409 kts 245°
2026-04-28 00:59 44.41627 -64.81588 29298 ft 411 kts 245°
2026-04-28 00:59 44.40481 -64.85263 29711 ft 413 kts 245°
2026-04-28 00:59 44.39326 -64.88958 30126 ft 415 kts 245°
2026-04-28 01:00 44.38162 -64.92676 30477 ft 418 kts 246°
2026-04-28 01:00 44.36991 -64.96415 30751 ft 422 kts 246°
2026-04-28 01:00 44.35811 -65.00179 31129 ft 422 kts 246°
2026-04-28 01:00 44.34644 -65.03889 31513 ft 423 kts 246°
2026-04-28 01:01 44.33461 -65.07649 31910 ft 423 kts 246°
2026-04-28 01:01 44.32275 -65.11412 32308 ft 423 kts 246°
2026-04-28 01:01 44.31088 -65.15175 32712 ft 423 kts 246°
2026-04-28 01:01 44.29897 -65.18942 33117 ft 423 kts 246°
2026-04-28 01:02 44.28706 -65.22704 33528 ft 423 kts 246°
2026-04-28 01:02 44.27513 -65.26468 33930 ft 423 kts 246°
2026-04-28 01:02 44.26320 -65.30224 34340 ft 423 kts 246°
2026-04-28 01:02 44.25128 -65.33976 34687 ft 423 kts 246°
2026-04-28 01:03 44.23931 -65.37734 35037 ft 423 kts 246°
2026-04-28 01:03 44.22736 -65.41483 35377 ft 423 kts 246°
2026-04-28 01:03 44.21540 -65.45231 35723 ft 423 kts 246°
2026-04-28 01:03 44.20339 -65.48985 36056 ft 424 kts 247°
2026-04-28 01:04 44.19136 -65.52741 36378 ft 424 kts 247°
2026-04-28 01:04 44.17932 -65.56499 36701 ft 425 kts 247°
2026-04-28 01:04 44.16725 -65.60257 37024 ft 426 kts 247°
2026-04-28 01:04 44.15514 -65.64022 37326 ft 427 kts 247°
2026-04-28 01:05 44.14312 -65.67755 37629 ft 428 kts 247°
2026-04-28 01:05 44.13094 -65.71533 37926 ft 428 kts 247°
2026-04-28 01:05 44.11870 -65.75321 38225 ft 429 kts 247°
2026-04-28 01:05 44.10642 -65.79118 38342 ft 431 kts 247°
2026-04-28 01:06 44.09417 -65.82901 38343 ft 426 kts 247°
2026-04-28 01:06 44.06982 -65.90404 38343 ft 425 kts 247°
2026-04-28 01:07 44.04543 -65.97897 38342 ft 425 kts 246°
2026-04-28 01:07 44.02119 -66.05323 38341 ft 425 kts 246°
2026-04-28 01:08 43.99665 -66.12821 38345 ft 427 kts 247°
2026-04-28 01:08 43.97205 -66.20315 38345 ft 427 kts 246°
2026-04-28 01:09 43.94733 -66.27822 38346 ft 427 kts 246°
2026-04-28 01:09 43.92255 -66.35330 38344 ft 427 kts 246°
2026-04-28 01:10 43.89777 -66.42817 38341 ft 426 kts 246°
2026-04-28 01:10 43.87299 -66.50280 38347 ft 426 kts 246°
2026-04-28 01:11 43.84819 -66.57730 38349 ft 426 kts 246°
2026-04-28 01:11 43.82333 -66.65177 38345 ft 427 kts 246°
2026-04-28 01:12 43.79845 -66.72611 38345 ft 428 kts 246°
2026-04-28 01:12 43.77338 -66.80076 38346 ft 427 kts 246°
2026-04-28 01:13 43.74835 -66.87514 38365 ft 426 kts 246°
2026-04-28 01:13 43.71493 -66.97410 38366 ft 426 kts 246°
2026-04-28 01:14 43.69087 -67.04890 38371 ft 427 kts 247°
2026-04-28 01:14 43.66598 -67.12337 38368 ft 426 kts 248°
2026-04-28 01:15 43.64212 -67.19827 38369 ft 426 kts 247°
2026-04-28 01:15 43.61779 -67.27227 38354 ft 425 kts 248°
2026-04-28 01:16 43.59355 -67.34693 38357 ft 426 kts 248°
2026-04-28 01:16 43.56911 -67.42140 38357 ft 426 kts 248°
2026-04-28 01:17 43.54471 -67.49582 38351 ft 426 kts 248°
2026-04-28 01:17 43.52023 -67.57017 38347 ft 426 kts 247°
2026-04-28 01:18 43.49567 -67.64459 38345 ft 426 kts 247°
2026-04-28 01:18 43.47109 -67.71884 38336 ft 427 kts 247°
2026-04-28 01:19 43.44646 -67.79306 38347 ft 428 kts 248°
2026-04-28 01:19 43.42165 -67.86761 38344 ft 428 kts 247°
2026-04-28 01:20 43.39684 -67.94196 38339 ft 427 kts 248°
2026-04-28 01:20 43.37194 -68.01636 38336 ft 428 kts 248°
2026-04-28 01:21 43.34700 -68.09067 38334 ft 428 kts 247°
2026-04-28 01:21 43.32215 -68.16452 38334 ft 429 kts 247°
2026-04-28 01:22 43.29707 -68.23885 38341 ft 429 kts 247°
2026-04-28 01:22 43.27190 -68.31326 38338 ft 430 kts 248°
2026-04-28 01:23 43.24666 -68.38762 38341 ft 429 kts 248°
2026-04-28 01:23 43.22143 -68.46179 38337 ft 429 kts 248°
2026-04-28 01:24 43.19617 -68.53583 38333 ft 428 kts 248°
2026-04-28 01:24 43.17087 -68.60980 38329 ft 428 kts 248°
2026-04-28 01:25 43.14572 -68.68314 37936 ft 429 kts 248°
2026-04-28 01:25 43.13302 -68.72010 37573 ft 430 kts 248°
2026-04-28 01:25 43.12025 -68.75721 37229 ft 431 kts 248°
2026-04-28 01:26 43.10743 -68.79439 36881 ft 432 kts 248°
2026-04-28 01:26 43.09460 -68.83156 36539 ft 433 kts 248°
2026-04-28 01:26 43.08171 -68.86891 36194 ft 434 kts 248°
2026-04-28 01:26 43.06877 -68.90629 35876 ft 435 kts 248°
2026-04-28 01:27 43.05580 -68.94369 35565 ft 436 kts 248°
2026-04-28 01:27 43.04279 -68.98119 35267 ft 437 kts 248°
2026-04-28 01:27 43.02974 -69.01875 34959 ft 437 kts 248°
2026-04-28 01:27 43.01668 -69.05631 34661 ft 438 kts 248°
2026-04-28 01:28 43.00356 -69.09397 34115 ft 439 kts 248°
2026-04-28 01:28 42.99042 -69.13164 33440 ft 438 kts 248°
2026-04-28 01:28 42.97751 -69.16856 32798 ft 435 kts 248°
2026-04-28 01:28 42.96452 -69.20568 32144 ft 432 kts 248°
2026-04-28 01:29 42.95161 -69.24253 31511 ft 429 kts 248°
2026-04-28 01:29 42.93875 -69.27923 30869 ft 427 kts 248°
2026-04-28 01:29 42.92592 -69.31576 30200 ft 425 kts 248°
2026-04-28 01:29 42.91319 -69.35195 29556 ft 421 kts 248°
2026-04-28 01:30 42.90057 -69.38775 28931 ft 416 kts 248°
2026-04-28 01:30 42.88810 -69.42313 28312 ft 412 kts 248°
2026-04-28 01:30 42.87572 -69.45822 27704 ft 408 kts 248°
2026-04-28 01:30 42.86343 -69.49300 27091 ft 405 kts 248°
2026-04-28 01:31 42.85122 -69.52749 26484 ft 402 kts 247°
2026-04-28 01:31 42.83922 -69.56131 25901 ft 399 kts 248°
2026-04-28 01:31 42.82702 -69.59575 25296 ft 397 kts 248°
2026-04-28 01:31 42.81517 -69.62912 24713 ft 396 kts 248°
2026-04-28 01:32 42.80320 -69.66275 24125 ft 394 kts 248°
2026-04-28 01:32 42.79127 -69.69626 23502 ft 392 kts 248°
2026-04-28 01:32 42.77941 -69.72951 22910 ft 388 kts 248°
2026-04-28 01:32 42.76768 -69.76236 22342 ft 384 kts 248°
2026-04-28 01:33 42.75605 -69.79492 21763 ft 380 kts 248°
2026-04-28 01:33 42.74452 -69.82716 21211 ft 377 kts 247°
2026-04-28 01:33 42.73309 -69.85907 20656 ft 374 kts 247°
2026-04-28 01:33 42.72174 -69.89072 20099 ft 371 kts 248°
2026-04-28 01:34 42.71046 -69.92214 19566 ft 369 kts 247°
2026-04-28 01:34 42.69924 -69.95339 19005 ft 367 kts 247°
2026-04-28 01:34 42.68806 -69.98445 18453 ft 365 kts 247°
2026-04-28 01:34 42.67696 -70.01524 17901 ft 361 kts 247°
2026-04-28 01:35 42.66598 -70.04568 17372 ft 357 kts 247°
2026-04-28 01:35 42.65511 -70.07580 16844 ft 353 kts 246°
2026-04-28 01:35 42.64511 -70.10611 16284 ft 351 kts 249°
2026-04-28 01:35 42.63466 -70.13594 15780 ft 348 kts 246°
2026-04-28 01:36 42.62401 -70.16526 15328 ft 344 kts 247°
2026-04-28 01:36 42.61406 -70.19415 14886 ft 340 kts 248°
2026-04-28 01:36 42.60432 -70.22319 14451 ft 335 kts 249°
2026-04-28 01:36 42.59641 -70.25226 14322 ft 320 kts 254°
2026-04-28 01:37 42.58910 -70.28044 14326 ft 317 kts 254°
2026-04-28 01:37 42.58190 -70.30867 14321 ft 315 kts 254°
2026-04-28 01:37 42.57484 -70.33687 14315 ft 316 kts 255°
2026-04-28 01:37 42.56775 -70.36506 14317 ft 315 kts 254°
2026-04-28 01:38 42.56059 -70.39323 14310 ft 315 kts 254°
2026-04-28 01:38 42.55345 -70.42133 14313 ft 315 kts 254°
2026-04-28 01:38 42.54630 -70.44948 14313 ft 315 kts 254°
2026-04-28 01:38 42.53915 -70.47765 14307 ft 315 kts 254°
2026-04-28 01:39 42.53207 -70.50545 14315 ft 316 kts 254°
2026-04-28 01:39 42.52576 -70.53394 14311 ft 316 kts 257°
2026-04-28 01:39 42.51907 -70.56219 14301 ft 312 kts 255°
2026-04-28 01:39 42.51220 -70.59021 14282 ft 315 kts 255°
2026-04-28 01:40 42.50566 -70.61853 13901 ft 315 kts 256°
2026-04-28 01:40 42.49926 -70.64694 13437 ft 314 kts 256°
2026-04-28 01:40 42.49278 -70.67510 12983 ft 312 kts 256°
2026-04-28 01:40 42.48626 -70.70308 12541 ft 310 kts 256°
2026-04-28 01:41 42.47978 -70.73095 12102 ft 309 kts 256°
2026-04-28 01:41 42.47337 -70.75866 11668 ft 308 kts 256°
2026-04-28 01:41 42.46695 -70.78631 11233 ft 307 kts 256°
2026-04-28 01:41 42.46044 -70.81381 10792 ft 307 kts 252°
2026-04-28 01:42 42.44900 -70.83824 10366 ft 311 kts 229°
2026-04-28 01:42 42.43396 -70.85892 9904 ft 312 kts 224°
2026-04-28 01:42 42.41803 -70.87874 9458 ft 310 kts 220°
2026-04-28 01:42 42.39952 -70.89321 9016 ft 307 kts 201°
2026-04-28 01:43 42.37952 -70.90309 8719 ft 301 kts 197°
2026-04-28 01:43 42.36007 -70.91175 8716 ft 292 kts 197°
2026-04-28 01:43 42.34081 -70.92077 8717 ft 292 kts 198°
2026-04-28 01:43 42.32165 -70.93012 8718 ft 293 kts 199°
2026-04-28 01:44 42.30235 -70.93843 8716 ft 287 kts 194°
2026-04-28 01:44 42.28381 -70.94648 8705 ft 273 kts 198°
2026-04-28 01:44 42.26602 -70.95477 8706 ft 271 kts 197°
2026-04-28 01:44 42.24809 -70.96255 8705 ft 269 kts 196°
2026-04-28 01:45 42.23020 -70.97004 8709 ft 270 kts 196°
2026-04-28 01:45 42.21243 -70.97760 8698 ft 272 kts 196°
2026-04-28 01:45 42.19448 -70.98533 8697 ft 268 kts 196°
2026-04-28 01:45 42.17708 -70.99281 8704 ft 260 kts 196°
2026-04-28 01:46 42.15979 -71.00022 8684 ft 260 kts 196°
2026-04-28 01:46 42.14256 -71.00764 8702 ft 261 kts 196°
2026-04-28 01:46 42.12530 -71.01507 8704 ft 260 kts 196°
2026-04-28 01:46 42.10801 -71.02250 8705 ft 260 kts 196°
2026-04-28 01:47 42.09072 -71.02993 8705 ft 261 kts 196°
2026-04-28 01:47 42.07343 -71.03735 8702 ft 261 kts 196°
2026-04-28 01:47 42.05610 -71.04479 8704 ft 260 kts 196°
2026-04-28 01:47 42.03885 -71.05218 8707 ft 260 kts 196°
2026-04-28 01:48 42.02153 -71.05960 8709 ft 262 kts 196°
2026-04-28 01:48 42.00415 -71.06705 8711 ft 261 kts 196°
2026-04-28 01:48 41.98681 -71.07447 8712 ft 262 kts 196°
2026-04-28 01:48 41.96946 -71.08189 8713 ft 262 kts 196°
2026-04-28 01:49 41.95234 -71.08921 8712 ft 261 kts 195°
2026-04-28 01:49 41.93502 -71.09661 8710 ft 261 kts 195°
2026-04-28 01:49 41.91768 -71.10402 8712 ft 262 kts 195°
2026-04-28 01:49 41.90031 -71.11143 8714 ft 261 kts 196°
2026-04-28 01:50 41.88297 -71.11883 8709 ft 261 kts 195°
2026-04-28 01:50 41.86563 -71.12623 8710 ft 261 kts 195°
2026-04-28 01:50 41.84829 -71.13361 8715 ft 262 kts 195°
2026-04-28 01:50 41.83081 -71.14105 8719 ft 263 kts 195°
2026-04-28 01:51 41.81339 -71.14847 8717 ft 263 kts 195°
2026-04-28 01:51 41.79596 -71.15588 8716 ft 263 kts 195°
2026-04-28 01:51 41.77851 -71.16330 8717 ft 263 kts 195°
2026-04-28 01:51 41.76103 -71.17073 8714 ft 263 kts 195°
2026-04-28 01:52 41.74356 -71.17815 8710 ft 263 kts 195°
2026-04-28 01:52 41.72611 -71.18556 8707 ft 263 kts 195°
2026-04-28 01:52 41.70861 -71.19298 8705 ft 263 kts 195°
2026-04-28 01:52 41.69117 -71.20037 8707 ft 263 kts 195°
2026-04-28 01:53 41.67371 -71.20777 8704 ft 263 kts 195°
2026-04-28 01:53 41.65625 -71.21516 8695 ft 264 kts 195°
2026-04-28 01:53 41.63894 -71.22249 8704 ft 264 kts 195°
2026-04-28 01:53 41.62144 -71.22989 8695 ft 264 kts 195°
2026-04-28 01:54 41.60392 -71.23730 8695 ft 263 kts 195°
2026-04-28 01:54 41.58646 -71.24467 8696 ft 263 kts 195°
2026-04-28 01:54 41.56894 -71.25207 8693 ft 264 kts 195°
2026-04-28 01:54 41.55150 -71.25962 8691 ft 261 kts 202°
2026-04-28 01:55 41.53974 -71.27173 8696 ft 0 kts 238°
2026-04-28 01:55 41.53653 -71.27869 8699 ft 0 kts 238°
2026-04-28 01:56 41.53259 -71.25345 8695 ft 0 kts 200°
2026-04-28 01:56 41.53259 -71.25346 8695 ft 0 kts 209°
2026-04-28 01:56 41.53007 -71.24856 8695 ft 0 kts 214°
2026-04-28 01:56 41.53888 -71.26137 8353 ft 0 kts 199°